When you browse on this site, cookies collect data to enhance your experience and personalize the content and advertising you see.
Visit our Privacy Policy to learn more. By continuing to use the site, you agree to this use of cookies and data.
  • en Suisse
  • Liste des pays
  • À 7 jours
  • Température de l'eau
  • Carte météo
  • Widgets météo
  • user-avatar
    Se connecter

    Météo par heure à Bruchsal

    Ce jour, 31 Mai, Dimanche

    Heure Température Précipitation Vent Pression Humidité
    00:00 +11°C° 0 mm 3 m/s 755 mmHg 70%
    01:00 +10°C° 0 mm 2 m/s 755 mmHg 74%
    02:00 +10°C° 0 mm 2 m/s 755 mmHg 76%
    03:00 +9°C° 0 mm 2 m/s 755 mmHg 78%
    04:00 +8°C° 0 mm 2 m/s 755 mmHg 80%
    05:00 +10°C° 0 mm 2 m/s 754 mmHg 77%
    06:00 +12°C° 0 mm 2 m/s 754 mmHg 74%
    07:00 +13°C° 0 mm 2 m/s 754 mmHg 70%
    08:00 +13°C° 0 mm 3 m/s 754 mmHg 65%
    09:00 +16°C° 0 mm 3 m/s 754 mmHg 60%
    10:00 +17°C° 0 mm 3 m/s 754 mmHg 54%
    11:00 +18°C° 0 mm 4 m/s 754 mmHg 52%
    12:00 +19°C° 0 mm 4 m/s 754 mmHg 49%
    13:00 +20°C° 0 mm 4 m/s 754 mmHg 47%
    14:00 +20°C° 0 mm 4 m/s 754 mmHg 48%
    15:00 +20°C° 0 mm 4 m/s 754 mmHg 49%
    16:00 +20°C° 0 mm 4 m/s 754 mmHg 50%
    17:00 +20°C° 0 mm 4 m/s 754 mmHg 53%
    18:00 +19°C° 0 mm 4 m/s 754 mmHg 57%
    19:00 +18°C° 0 mm 3 m/s 754 mmHg 61%
    20:00 +17°C° 0 mm 3 m/s 754 mmHg 64%
    21:00 +14°C° 0 mm 3 m/s 754 mmHg 68%
    22:00 +13°C° 0 mm 3 m/s 755 mmHg 71%
    23:00 +13°C° 0 mm 3 m/s 755 mmHg 73%

    Demain, 1 Juin, Lundi

    Heure Température Précipitation Vent Pression Humidité
    00:00 +12°C° 0 mm 3 m/s 755 mmHg 75%
    01:00 +12°C° 0 mm 3 m/s 755 mmHg 76%
    02:00 +12°C° 0 mm 2 m/s 754 mmHg 78%
    03:00 +10°C° 0 mm 2 m/s 754 mmHg 80%
    04:00 +10°C° 0 mm 2 m/s 754 mmHg 82%
    05:00 +12°C° 0 mm 2 m/s 754 mmHg 79%
    06:00 +12°C° 0 mm 3 m/s 754 mmHg 76%
    07:00 +14°C° 0 mm 3 m/s 754 mmHg 72%
    08:00 +17°C° 0 mm 3 m/s 754 mmHg 66%
    09:00 +19°C° 0 mm 4 m/s 754 mmHg 60%
    10:00 +21°C° 0 mm 4 m/s 754 mmHg 54%
    11:00 +22°C° 0 mm 5 m/s 754 mmHg 51%
    12:00 +22°C° 0 mm 5 m/s 754 mmHg 49%
    13:00 +23°C° 0 mm 5 m/s 754 mmHg 46%
    14:00 +25°C° 0 mm 5 m/s 753 mmHg 46%
    15:00 +25°C° 0 mm 5 m/s 753 mmHg 47%
    16:00 +25°C° 0 mm 4 m/s 753 mmHg 48%
    17:00 +23°C° 0 mm 4 m/s 753 mmHg 52%
    18:00 +22°C° 0 mm 3 m/s 753 mmHg 57%
    19:00 +22°C° 0 mm 3 m/s 753 mmHg 61%
    20:00 +20°C° 0 mm 3 m/s 753 mmHg 66%
    21:00 +18°C° 0 mm 3 m/s 753 mmHg 70%
    22:00 +17°C° 0 mm 2 m/s 754 mmHg 75%
    23:00 +16°C° 0 mm 2 m/s 753 mmHg 75%

    Après-demain, 2 Juin, Mardi

    Heure Température Précipitation Vent Pression Humidité
    00:00 +15°C° 0 mm 2 m/s 753 mmHg 75%
    01:00 +14°C° 0 mm 2 m/s 753 mmHg 76%
    02:00 +14°C° 0 mm 2 m/s 753 mmHg 77%
    03:00 +13°C° 0 mm 2 m/s 753 mmHg 79%
    04:00 +13°C° 0 mm 2 m/s 753 mmHg 80%
    05:00 +13°C° 0 mm 3 m/s 753 mmHg 77%
    06:00 +14°C° 0 mm 3 m/s 752 mmHg 73%
    07:00 +16°C° 0 mm 3 m/s 752 mmHg 69%
    08:00 +18°C° 0 mm 3 m/s 752 mmHg 63%
    09:00 +20°C° 0 mm 4 m/s 752 mmHg 58%
    10:00 +21°C° 0 mm 4 m/s 752 mmHg 52%
    11:00 +22°C° 0 mm 4 m/s 751 mmHg 49%
    12:00 +23°C° 0 mm 4 m/s 751 mmHg 47%
    13:00 +25°C° 0 mm 4 m/s 750 mmHg 44%
    14:00 +25°C° 0 mm 4 m/s 750 mmHg 44%
    15:00 +25°C° 0 mm 4 m/s 749 mmHg 44%
    16:00 +26°C° 0 mm 4 m/s 748 mmHg 44%
    17:00 +25°C° 0 mm 4 m/s 748 mmHg 49%
    18:00 +24°C° 0 mm 3 m/s 748 mmHg 54%
    19:00 +21°C° 0 mm 3 m/s 747 mmHg 58%
    20:00 +20°C° 0 mm 3 m/s 747 mmHg 62%
    21:00 +18°C° 0 mm 2 m/s 747 mmHg 65%
    22:00 +17°C° 0 mm 2 m/s 747 mmHg 69%
    23:00 +16°C° 0 mm 2 m/s 747 mmHg 71%

    3 Juin, Mercredi

    Heure Température Précipitation Vent Pression Humidité
    00:00 +15°C° 0 mm 2 m/s 747 mmHg 73%
    01:00 +15°C° 0 mm 2 m/s 746 mmHg 76%
    02:00 +14°C° 0 mm 2 m/s 746 mmHg 78%
    03:00 +14°C° 0 mm 2 m/s 746 mmHg 80%
    04:00 +13°C° 0 mm 2 m/s 746 mmHg 82%
    05:00 +13°C° 0 mm 3 m/s 745 mmHg 77%
    06:00 +14°C° 0 mm 3 m/s 745 mmHg 72%
    07:00 +16°C° 0 mm 3 m/s 745 mmHg 67%
    08:00 +18°C° 0 mm 3 m/s 745 mmHg 61%
    09:00 +20°C° 0 mm 4 m/s 745 mmHg 55%
    10:00 +22°C° 0 mm 4 m/s 745 mmHg 49%
    11:00 +23°C° 0 mm 4 m/s 745 mmHg 47%
    12:00 +26°C° 0 mm 4 m/s 744 mmHg 44%
    13:00 +27°C° 0 mm 5 m/s 744 mmHg 41%
    14:00 +27°C° 0 mm 5 m/s 744 mmHg 42%
    15:00 +27°C° 0 mm 4 m/s 743 mmHg 42%
    16:00 +28°C° 0 mm 4 m/s 743 mmHg 42%
    17:00 +26°C° 0 mm 4 m/s 743 mmHg 47%
    18:00 +25°C° 0 mm 3 m/s 743 mmHg 53%
    19:00 +24°C° 0 mm 3 m/s 743 mmHg 58%
    20:00 +22°C° 0 mm 3 m/s 744 mmHg 61%
    21:00 +20°C° 0 mm 2 m/s 744 mmHg 64%
    22:00 +18°C° 0 mm 2 m/s 745 mmHg 67%
    23:00 +18°C° 0 mm 2 m/s 745 mmHg 70%

    4 Juin, Jeudi

    Heure Température Précipitation Vent Pression Humidité
    00:00 +17°C° 0 mm 2 m/s 745 mmHg 73%
    01:00 +16°C° 0 mm 2 m/s 745 mmHg 76%
    02:00 +16°C° 0 mm 2 m/s 745 mmHg 77%
    03:00 +15°C° 0 mm 2 m/s 745 mmHg 78%
    04:00 +15°C° 0 mm 2 m/s 745 mmHg 80%
    05:00 +16°C° 0 mm 2 m/s 745 mmHg 76%
    06:00 +17°C° 0 mm 2 m/s 745 mmHg 72%
    07:00 +18°C° 0 mm 2 m/s 745 mmHg 69%
    08:00 +20°C° 0 mm 2 m/s 745 mmHg 63%
    09:00 +23°C° 0 mm 2 m/s 745 mmHg 57%
    10:00 +25°C° 0 mm 2 m/s 745 mmHg 52%
    11:00 +26°C° 0 mm 2 m/s 745 mmHg 47%
    12:00 +27°C° 0 mm 2 m/s 744 mmHg 42%
    13:00 +28°C° 0 mm 2 m/s 744 mmHg 37%
    14:00 +29°C° 0 mm 2 m/s 744 mmHg 38%
    15:00 +29°C° 0 mm 2 m/s 744 mmHg 39%
    16:00 +29°C° 0 mm 2 m/s 744 mmHg 39%
    17:00 +27°C° 0 mm 2 m/s 743 mmHg 47%
    18:00 +26°C° 0 mm 2 m/s 743 mmHg 55%
    19:00 +24°C° 0 mm 2 m/s 743 mmHg 63%
    20:00 +23°C° 0.1 mm 1 m/s 743 mmHg 67%
    21:00 +22°C° 0.1 mm 1 m/s 744 mmHg 72%
    22:00 +20°C° 0.1 mm 1 m/s 744 mmHg 76%
    23:00 +20°C° 0 mm 1 m/s 744 mmHg 78%

    5 Juin, Vendredi

    Heure Température Précipitation Vent Pression Humidité
    00:00 +19°C° 0 mm 1 m/s 744 mmHg 79%
    01:00 +19°C° 0 mm 1 m/s 744 mmHg 81%
    02:00 +18°C° 0 mm 1 m/s 744 mmHg 82%
    03:00 +18°C° 0 mm 1 m/s 743 mmHg 83%
    04:00 +18°C° 0 mm 1 m/s 743 mmHg 84%
    05:00 +19°C° 0 mm 1 m/s 743 mmHg 81%
    06:00 +20°C° 0 mm 1 m/s 743 mmHg 78%
    07:00 +21°C° 0 mm 1 m/s 743 mmHg 75%
    08:00 +23°C° 0 mm 2 m/s 743 mmHg 69%
    09:00 +25°C° 0 mm 2 m/s 743 mmHg 63%
    10:00 +26°C° 0 mm 3 m/s 743 mmHg 56%
    11:00 +27°C° 0 mm 3 m/s 742 mmHg 53%
    12:00 +29°C° 0 mm 3 m/s 742 mmHg 50%
    13:00 +30°C° 0 mm 3 m/s 742 mmHg 46%
    14:00 +30°C° 0.1 mm 4 m/s 741 mmHg 47%
    15:00 +30°C° 0.1 mm 4 m/s 741 mmHg 48%
    16:00 +30°C° 0.1 mm 4 m/s 741 mmHg 50%
    17:00 +28°C° 0.1 mm 3 m/s 741 mmHg 55%
    18:00 +27°C° 0.1 mm 3 m/s 741 mmHg 60%
    19:00 +26°C° 0.1 mm 2 m/s 740 mmHg 65%
    20:00 +25°C° 0.8 mm 2 m/s 741 mmHg 71%
    21:00 +23°C° 0.8 mm 1 m/s 741 mmHg 77%
    22:00 +22°C° 0.8 mm 1 m/s 741 mmHg 82%
    23:00 +21°C° 0.7 mm 1 m/s 741 mmHg 84%
    Voir plus